Location: Unspecified
(42.9300°N, 71.1866°W)
Time: 03:02:58
(UTC-04:00)

Genesis I - Visible Passes

Search period start: 21 October 2014 00:00
Search period end: 31 October 2014 00:00
Orbit: 499 x 563 km, 64.5° (Epoch: 19 October)

Date Brightness Start Highest point End Pass type
(mag) Time Alt. Az. Time Alt. Az. Time Alt. Az.
25 Oct 6.0 20:17:12 10° NNW 20:17:39 12° N 20:17:39 12° N visible
26 Oct 5.7 20:06:14 10° NNW 20:07:13 15° N 20:07:13 15° N visible
27 Oct 5.3 19:55:16 10° NNW 19:56:50 19° N 19:56:50 19° N visible
28 Oct 4.9 19:44:18 10° NNW 19:46:30 25° N 19:46:30 25° N visible
29 Oct 4.3 19:33:19 10° NNW 19:36:16 34° NNE 19:36:16 34° NNE visible
30 Oct 3.7 19:22:19 10° NNW 19:26:08 44° NE 19:26:08 44° NE visible
30 Oct 6.6 21:01:03 10° WNW 21:01:28 12° WNW 21:01:28 12° WNW visible
